This is the latest recevied weather packets stored in our database for station/object F4ETJ-1. If no packets are shown the sender has not sent any weather packets the latest 10 day(s).
| Time | Temp. | Humidity | Pressure | Rain* | Wind** | Luminosity | Snow |
|---|---|---|---|---|---|---|---|
| 1777628451 | 20.56° C | 74% | 1019.4 hPa | 0 mm | - | - | - |
| 1777628083 | 20° C | 76% | 1019.4 hPa | 0 mm | - | - | - |
| 1777627721 | 20° C | 79% | 1019.4 hPa | 0 mm | - | - | - |
| 1777627362 | 19.44° C | 79% | 1019.4 hPa | 0 mm | - | - | - |
| 1777627001 | 19.44° C | 79% | 1019.4 hPa | 0 mm | - | - | - |
| 1777626641 | 19.44° C | 81% | 1019.4 hPa | 0 mm | - | - | - |
| 1777626280 | 18.89° C | 81% | 1019.5 hPa | 0 mm | - | - | - |
| 1777625920 | 18.89° C | 81% | 1019.4 hPa | 0 mm | - | - | - |
| 1777625560 | 18.89° C | 82% | 1019.4 hPa | 0 mm | - | - | - |
| 1777625199 | 18.33° C | 81% | 1019.4 hPa | 0 mm | - | - | - |
| 1777624839 | 18.33° C | 82% | 1019.4 hPa | 0 mm | - | - | - |
| 1777624479 | 18.89° C | 80% | 1019.5 hPa | 0 mm | - | - | - |
| 1777624118 | 18.33° C | 81% | 1019.5 hPa | 0 mm | - | - | - |
| 1777623758 | 18.89° C | 82% | 1019.6 hPa | 0 mm | - | - | - |
| 1777623398 | 18.33° C | 84% | 1019.5 hPa | 0 mm | - | - | - |
| 1777623037 | 17.78° C | 86% | 1019.5 hPa | 0 mm | - | - | - |
| 1777622677 | 17.22° C | 88% | 1019.5 hPa | 0 mm | - | - | - |
| 1777622317 | 17.22° C | 90% | 1019.4 hPa | 0 mm | - | - | - |
| 1777621956 | 16.67° C | 91% | 1019.4 hPa | 0 mm | - | - | - |
| 1777621596 | 16.11° C | 91% | 1019.4 hPa | 0 mm | - | - | - |
| 1777621235 | 15.56° C | 93% | 1019.3 hPa | 0 mm | - | - | - |
| 1777620875 | 15.56° C | 94% | 1019.4 hPa | 0 mm | - | - | - |
| 1777620515 | 15° C | 95% | 1019.3 hPa | 0 mm | - | - | - |
| 1777620155 | 15° C | 95% | 1019.3 hPa | 0 mm | - | - | - |
| 1777619795 | 15° C | 95% | 1019.4 hPa | 0 mm | - | - | - |
* Rain latest hour (hover to see other rain measurements)
** Current wind speed in m/s (hover to see current wind gust speed)